Weather History for Highgate, VT

Change the Weather History Date:

Wednesday, August 21, 2013

  Actual Average (KPBG) Record (KPBG)
Temperature  
Mean Temperature 79 °F 67 °F  
Max Temperature 89 °F 78 °F 95 °F (1955)
Min Temperature 69 °F 56 °F 41 °F (2007)
Degree Days  
Heating Degree Days 0 1  
Month to date heating degree days 9  
Since 1 June heating degree days 105  
Since 1 July heating degree days 20  
Cooling Degree Days 14 3  
Month to date cooling degree days 80  
Year to date cooling degree days 293  
Since 1 June cooling degree days 285  
Growing Degree Days 29 (Base 50)    
Moisture  
Dew Point 61 °F    
Average Humidity 57    
Maximum Humidity 70    
Minimum Humidity 36    
Precipitation  
Precipitation 0.00 in - 0.70 in (1970)
Month to date precipitation  
Year to date precipitation  
Sea Level Pressure  
Sea Level Pressure 30.05 in    
Wind  
Wind Speed 5 mph (SSW)    
Max Wind Speed 9 mph    
Max Gust Speed 16 mph    
Visibility 10 miles    
Events      
T = Trace of Precipitation, MM = Missing Value Source: NWS Daily Summary

Daily Weather History Graph

Daily Weather History Graph

Search for Another Location

Airport:

Trip Planner

Search our weather history database for the weather conditions in past years. The results will help you decide how hot, cold, wet, or windy it might be!

Date:

Astronomy

Aug. 21, 2013 Rise Set
Actual Time 6:01 AM EDT 7:48 PM EDT
Civil Twilight 5:30 AM EDT 8:19 PM EDT
Nautical Twilight 4:52 AM EDT 8:57 PM EDT
Astronomical Twilight 4:10 AM EDT 9:38 PM EDT
Moon 7:49 PM EDT (8/21) 6:42 AM EDT (8/21)
Length of Visible Light 14h 49m
Length of Day
13h 46m
Full, 100% of the Moon is Illuminated
Aug 21
Full
Aug 28
Last Quarter
Sep 5
New
Sep 12
First Quarter
Sep 19
Full

Hourly Weather History & Observations

Time (EDT) Temp. Heat Index Dew Point Humidity Pressure Visibility Wind Dir Wind Speed Gust Speed Precip Events Conditions
12:15 AM 72.5 °F - 61.3 °F 68% 30.07 in 10.0 mi South 3.5 mph - N/A   Clear
12:35 AM 73.0 °F - 61.2 °F 66% 30.07 in 10.0 mi South 4.6 mph - N/A   Clear
12:55 AM 72.1 °F - 59.5 °F 64% 30.08 in 10.0 mi South 5.8 mph - N/A   Clear
1:15 AM 72.0 °F - 59.2 °F 64% 30.08 in 10.0 mi South 5.8 mph - N/A   Clear
1:35 AM 72.0 °F - 59.0 °F 64% 30.08 in 10.0 mi South 5.8 mph - N/A   Clear
1:55 AM 71.8 °F - 59.0 °F 64% 30.08 in 10.0 mi South 4.6 mph - N/A   Clear
2:15 AM 72.0 °F - 58.3 °F 62% 30.08 in 10.0 mi South 5.8 mph - N/A   Clear
2:35 AM 72.0 °F - 58.1 °F 62% 30.09 in 10.0 mi South 3.5 mph - N/A   Scattered Clouds
2:55 AM 71.6 °F - 58.1 °F 62% 30.09 in 10.0 mi South 4.6 mph - N/A   Scattered Clouds
3:15 AM 70.2 °F - 57.4 °F 64% 30.09 in 10.0 mi South 4.6 mph - N/A   Clear
3:35 AM 69.4 °F - 57.6 °F 66% 30.09 in 10.0 mi South 3.5 mph - N/A   Clear
3:55 AM 69.4 °F - 57.7 °F 66% 30.08 in 10.0 mi South 3.5 mph - N/A   Clear
4:15 AM 69.4 °F - 58.3 °F 68% 30.08 in 10.0 mi South 5.8 mph - N/A   Clear
4:35 AM 69.4 °F - 58.3 °F 68% 30.08 in 10.0 mi South 4.6 mph - N/A   Clear
4:55 AM 69.4 °F - 57.7 °F 66% 30.08 in 10.0 mi South 5.8 mph - N/A   Clear
5:15 AM 69.4 °F - 57.7 °F 66% 30.08 in 10.0 mi South 4.6 mph - N/A   Clear
5:35 AM 69.4 °F - 58.1 °F 67% 30.09 in 10.0 mi South 4.6 mph - N/A   Clear
5:55 AM 69.4 °F - 58.5 °F 68% 30.09 in 10.0 mi South 5.8 mph - N/A   Clear
6:15 AM 69.4 °F - 58.5 °F 68% 30.09 in 10.0 mi South 4.6 mph - N/A   Clear
6:35 AM 69.4 °F - 59.0 °F 69% 30.10 in 10.0 mi South 4.6 mph - N/A   Clear
6:55 AM 69.4 °F - 58.6 °F 68% 30.10 in 10.0 mi South 4.6 mph - N/A   Clear
7:15 AM 69.4 °F - 58.5 °F 68% 30.10 in 10.0 mi South 4.6 mph - N/A   Clear
7:35 AM 69.4 °F - 57.9 °F 67% 30.10 in 10.0 mi South 5.8 mph - N/A   Clear
7:55 AM 70.7 °F - 59.0 °F 66% 30.10 in 10.0 mi South 5.8 mph - N/A   Clear
8:15 AM 72.0 °F - 59.5 °F 65% 30.11 in 10.0 mi South 5.8 mph - N/A   Clear
8:35 AM 74.5 °F - 61.0 °F 63% 30.11 in 10.0 mi South 6.9 mph - N/A   Clear
8:55 AM 74.5 °F - 60.6 °F 62% 30.11 in 10.0 mi SSW 8.1 mph - N/A   Clear
9:15 AM 74.5 °F - 60.1 °F 61% 30.11 in 10.0 mi SSW 6.9 mph - N/A   Clear
9:35 AM 75.6 °F - 60.1 °F 59% 30.11 in 10.0 mi South 6.9 mph 16.1 mph N/A   Scattered Clouds
9:55 AM 77.0 °F - 61.0 °F 58% 30.11 in 10.0 mi South 8.1 mph - N/A   Mostly Cloudy
10:15 AM 77.5 °F - 61.2 °F 57% 30.11 in 10.0 mi SSW 4.6 mph - N/A   Scattered Clouds
10:35 AM 79.7 °F - 61.9 °F 54% 30.11 in 10.0 mi South 6.9 mph - N/A   Scattered Clouds
10:55 AM 79.7 °F - 61.5 °F 54% 30.10 in 10.0 mi SSW 6.9 mph - N/A   Scattered Clouds
11:15 AM 79.9 °F - 60.8 °F 52% 30.10 in 10.0 mi South 8.1 mph - N/A   Clear
11:35 AM 80.8 °F 81.5 °F 60.8 °F 50% 30.09 in 10.0 mi SSW 6.9 mph - N/A   Clear
11:55 AM 82.0 °F 82.7 °F 61.3 °F 49% 30.09 in 7.0 mi SSW 5.8 mph - N/A   Clear
12:15 PM 83.3 °F 83.9 °F 61.5 °F 48% 30.09 in 10.0 mi SW 8.1 mph - N/A   Clear
12:35 PM 84.2 °F 84.6 °F 61.5 °F 46% 30.08 in 10.0 mi SW 8.1 mph - N/A   Clear
12:55 PM 85.3 °F 85.7 °F 61.5 °F 45% 30.08 in 10.0 mi SSW 9.2 mph - N/A   Clear
1:15 PM 87.4 °F 88.2 °F 63.1 °F 44% 30.08 in 10.0 mi SSW 8.1 mph - N/A   Clear
1:35 PM 88.9 °F 90.0 °F 63.9 °F 43% 30.08 in 10.0 mi SW 6.9 mph - N/A   Clear
1:55 PM 89.6 °F 90.8 °F 63.7 °F 42% 30.07 in 10.0 mi SSW 4.6 mph - N/A   Clear
2:15 PM 89.6 °F 89.8 °F 61.9 °F 39% 30.06 in 10.0 mi SW 5.8 mph - N/A   Clear
2:35 PM 89.6 °F 89.8 °F 61.9 °F 39% 30.05 in 10.0 mi SSW 6.9 mph - N/A   Clear
2:55 PM 89.6 °F 90.4 °F 62.8 °F 41% 30.05 in 10.0 mi WSW 5.8 mph - N/A   Scattered Clouds
3:15 PM 89.6 °F 89.8 °F 61.3 °F 39% 30.04 in 10.0 mi SSW 6.9 mph - N/A   Clear
3:35 PM 89.6 °F 89.2 °F 60.4 °F 37% 30.03 in 10.0 mi SW 6.9 mph - N/A   Clear
3:55 PM 89.6 °F 89.2 °F 60.1 °F 37% 30.03 in 10.0 mi WSW 6.9 mph - N/A   Clear
4:15 PM 89.6 °F 88.9 °F 59.5 °F 36% 30.02 in 10.0 mi WSW 4.6 mph - N/A   Clear
4:35 PM 87.8 °F 87.4 °F 59.9 °F 39% 30.02 in 10.0 mi SW 4.6 mph - N/A   Scattered Clouds
4:55 PM 89.6 °F 89.5 °F 61.2 °F 38% 30.02 in 10.0 mi SSW 4.6 mph - N/A   Scattered Clouds
5:15 PM 87.3 °F 87.2 °F 60.8 °F 41% 30.01 in 10.0 mi SSW 5.8 mph - N/A   Scattered Clouds
5:35 PM 87.1 °F 87.0 °F 61.0 °F 41% 30.00 in 10.0 mi SSW 4.6 mph - N/A   Scattered Clouds
5:55 PM 87.1 °F 87.5 °F 62.1 °F 43% 30.00 in 3.0 mi SSW 3.5 mph - N/A   Haze
6:15 PM 85.1 °F 85.2 °F 61.0 °F 44% 29.99 in 10.0 mi SSW 4.6 mph - N/A   Scattered Clouds
6:35 PM 83.7 °F 84.3 °F 61.9 °F 48% 29.99 in 10.0 mi Calm Calm - N/A   Clear
6:55 PM 82.6 °F 83.4 °F 62.4 °F 50% 29.98 in 10.0 mi Calm Calm - N/A   Clear
7:15 PM 81.0 °F 82.2 °F 62.8 °F 54% 29.97 in 10.0 mi Calm Calm - N/A   Clear
7:35 PM 79.7 °F - 63.5 °F 58% 29.97 in 10.0 mi Calm Calm - N/A   Clear
7:55 PM 77.0 °F - 62.8 °F 61% 29.97 in 10.0 mi South 3.5 mph - N/A   Clear
8:15 PM 77.0 °F - 63.5 °F 63% 29.95 in 10.0 mi South 3.5 mph - N/A   Clear
8:35 PM 77.0 °F - 63.0 °F 62% 29.95 in 10.0 mi South 3.5 mph - N/A   Clear
8:55 PM 75.9 °F - 62.6 °F 63% 29.96 in 10.0 mi South 3.5 mph - N/A   Clear
9:15 PM 74.5 °F - 61.7 °F 64% 29.96 in 10.0 mi Calm Calm - N/A   Clear
9:35 PM 74.5 °F - 62.8 °F 67% 29.97 in 10.0 mi Calm Calm - N/A   Clear
9:55 PM 74.5 °F - 63.1 °F 68% 29.97 in 10.0 mi South 3.5 mph - N/A   Clear
10:15 PM 74.5 °F - 64.2 °F 70% 29.97 in 7.0 mi Calm Calm - N/A   Clear
10:35 PM 74.5 °F - 63.5 °F 68% 29.97 in 10.0 mi Calm Calm - N/A   Clear
10:55 PM 74.5 °F - 63.5 °F 68% 29.97 in 10.0 mi South 4.6 mph - N/A   Clear
11:15 PM 74.5 °F - 62.1 °F 65% 29.97 in 10.0 mi South 4.6 mph - N/A   Clear
11:35 PM 74.5 °F - 62.6 °F 66% 29.97 in 10.0 mi South 4.6 mph - N/A   Clear
11:55 PM 72.7 °F - 61.5 °F 68% 29.97 in 10.0 mi South 3.5 mph - N/A   Clear